User: anonymous   Login
Location: Edmonton
(53.5500°N, 113.5000°W)
Time: 20:31:27
(UTC-06:00)
Language:

CZ-4C R/B - Orbit

View from above orbital plane
View from above orbital plane
View from above satellite
View from above satellite

Ground track
Ground track

The orbit data is extracted from the following two-line orbital elements,

1 36416U 10009D   17267.58409292 -.00000067 +00000-0 +19729-4 0  9998
2 36416 063.4401 357.5696 0396591 356.0903 003.7062 13.69519459377827
Epoch (UTC): 24 September 2017 14:01:05
Eccentricity: 0.0396591
inclination: 63.4401°
perigee height: 708 km
apogee height: 1294 km
right ascension of ascending node: 357.5696°
argument of perigee: 356.0903°
revolutions per day: 13.69519459
mean anomaly at epoch: 3.7062°
orbit number at epoch: 37782

The dashed part of the orbit path shows where the satellite is in the earth's shadow,  

DLR